HB9BFD-10 Weather Reports


time (UTC)temp
F
wind
direction
speed
knots
gust
knots
rain 1hr
in
rain 24hr
in
rain mn
in
humidity
%
barometer
mb
20260506135442 0 0.0 0.0 0.00 0.00 0.00 77 1012.0
20260506134942 0 0.0 0.0 0.00 0.00 0.00 77 1011.9
20260506134442 0 0.0 0.0 0.00 0.00 0.00 78 1011.9
20260506133942 0 0.0 0.0 0.00 0.00 0.00 78 1011.9
20260506133442 0 0.0 0.0 0.00 0.00 0.00 76 1011.9
20260506132942 0 0.0 0.0 0.00 0.00 0.00 78 1011.9
20260506132442 0 0.0 0.0 0.00 0.00 0.00 74 1011.8
20260506131942 0 0.0 0.0 0.00 0.00 0.00 78 1011.8
20260506131442 0 0.0 0.0 0.00 0.00 0.00 77 1011.9
20260506130942 0 0.0 0.0 0.00 0.00 0.00 79 1012.0
20260506130442 0 0.0 0.0 0.00 0.00 0.00 79 1011.9
20260506125942 0 0.0 0.0 0.00 0.00 0.00 79 1011.9
20260506125442 0 0.0 0.0 0.00 0.00 0.00 81 1012.0
20260506124942 0 0.0 0.0 0.00 0.00 0.00 80 1011.9
20260506124442 0 0.0 0.0 0.00 0.00 0.00 81 1011.8
20260506123942 0 0.0 0.0 0.00 0.00 0.00 78 1011.8
20260506123442 0 0.0 0.0 0.00 0.00 0.00 76 1011.7
20260506122942 0 0.0 0.0 0.00 0.00 0.00 79 1011.5
20260506122442 0 0.0 0.0 0.00 0.00 0.00 80 1011.5
20260506121942 0 0.0 0.0 0.00 0.00 0.00 81 1011.6
20260506121442 0 0.0 0.0 0.00 0.00 0.00 81 1011.6
20260506120942 0 0.0 0.0 0.00 0.00 0.00 80 1011.6
20260506120442 0 0.0 0.0 0.00 0.00 0.00 80 1011.4
20260506115942 0 0.0 0.0 0.00 0.00 0.00 80 1011.4
20260506115442 0 0.0 0.0 0.00 0.00 0.00 79 1011.2
20260506114942 0 0.0 0.0 0.00 0.00 0.00 78 1011.2
20260506114442 0 0.0 0.0 0.00 0.00 0.00 78 1010.9
20260506113942 0 0.0 0.0 0.00 0.00 0.00 79 1011.0
20260506113442 0 0.0 0.0 0.00 0.00 0.00 81 1010.9
20260506112942 0 0.0 0.0 0.00 0.00 0.00 82 1010.6
20260506112442 0 0.0 0.0 0.00 0.00 0.00 80 1010.6
20260506111942 0 0.0 0.0 0.00 0.00 0.00 79 1010.5
20260506111442 0 0.0 0.0 0.00 0.00 0.00 79 1010.5
20260506110942 0 0.0 0.0 0.00 0.00 0.00 78 1010.4
20260506110442 0 0.0 0.0 0.00 0.00 0.00 78 1010.5
20260506105942 0 0.0 0.0 0.00 0.00 0.00 76 1010.4
20260506105442 0 0.0 0.0 0.00 0.00 0.00 74 1010.4
20260506104942 0 0.0 0.0 0.00 0.00 0.00 72 1010.4
20260506104442 0 0.0 0.0 0.00 0.00 0.00 71 1010.3
20260506103942 0 0.0 0.0 0.00 0.00 0.00 69 1010.4
20260506103442 0 0.0 0.0 0.00 0.00 0.00 71 1010.4
20260506102942 0 0.0 0.0 0.00 0.00 0.00 68 1010.3
20260506102442 0 0.0 0.0 0.00 0.00 0.00 63 1010.4
20260506101942 0 0.0 0.0 0.00 0.00 0.00 64 1010.3
20260506101442 0 0.0 0.0 0.00 0.00 0.00 64 1010.1
20260506100942 0 0.0 0.0 0.00 0.00 0.00 65 1010.1
20260506100442 0 0.0 0.0 0.00 0.00 0.00 66 1010.1
20260506095942 0 0.0 0.0 0.00 0.00 0.00 70 1010.1
20260506095442 0 0.0 0.0 0.00 0.00 0.00 69 1010.2
20260506094942 0 0.0 0.0 0.00 0.00 0.00 73 1010.2
20260506094442 0 0.0 0.0 0.00 0.00 0.00 70 1010.2
20260506093942 0 0.0 0.0 0.00 0.00 0.00 72 1010.2
20260506093442 0 0.0 0.0 0.00 0.00 0.00 73 1010.2
20260506092942 0 0.0 0.0 0.00 0.00 0.00 74 1010.2
20260506092442 0 0.0 0.0 0.00 0.00 0.00 74 1010.2
20260506091942 0 0.0 0.0 0.00 0.00 0.00 77 1010.0
20260506091442 0 0.0 0.0 0.00 0.00 0.00 77 1009.9
20260506090942 0 0.0 0.0 0.00 0.00 0.00 76 1010.0
20260506090442 0 0.0 0.0 0.00 0.00 0.00 76 1010.0
20260506085942 0 0.0 0.0 0.00 0.00 0.00 75 1009.9
20260506085442 0 0.0 0.0 0.00 0.00 0.00 76 1010.0
20260506084942 0 0.0 0.0 0.00 0.00 0.00 75 1009.9
20260506084442 0 0.0 0.0 0.00 0.00 0.00 76 1009.9
20260506083942 0 0.0 0.0 0.00 0.00 0.00 77 1009.9
20260506083442 0 0.0 0.0 0.00 0.00 0.00 76 1010.0
20260506082942 0 0.0 0.0 0.00 0.00 0.00 76 1010.0
20260506082442 0 0.0 0.0 0.00 0.00 0.00 78 1009.9
20260506081942 0 0.0 0.0 0.00 0.00 0.00 77 1009.9
20260506081442 0 0.0 0.0 0.00 0.00 0.00 77 1009.8
20260506080942 0 0.0 0.0 0.00 0.00 0.00 76 1009.9
20260506080442 0 0.0 0.0 0.00 0.00 0.00 76 1009.8
20260506073442 0 0.0 0.0 0.00 0.00 0.00 73 1009.7
20260506072942 0 0.0 0.0 0.00 0.00 0.00 73 1009.7
20260506072442 0 0.0 0.0 0.00 0.00 0.00 73 1009.8
20260506071942 0 0.0 0.0 0.00 0.00 0.00 73 1009.8
20260506071442 0 0.0 0.0 0.00 0.00 0.00 74 1009.9
20260506070942 0 0.0 0.0 0.00 0.00 0.00 73 1009.9
20260506070442 0 0.0 0.0 0.00 0.00 0.00 72 1009.9
20260506062442 0 0.0 0.0 0.00 0.00 0.00 76 1009.7
20260506061942 0 0.0 0.0 0.00 0.00 0.00 74 1009.7
20260506061442 0 0.0 0.0 0.00 0.00 0.00 76 1009.7
20260506060942 0 0.0 0.0 0.00 0.00 0.00 78 1009.7
20260506060442 0 0.0 0.0 0.00 0.00 0.00 78 1009.7
20260506050942 0 0.0 0.0 0.00 0.00 0.00 82 1010.0
20260506050442 0 0.0 0.0 0.00 0.00 0.00 82 1009.9
20260506044942 0 0.0 0.0 0.00 0.00 0.00 82 1009.9
20260506044442 0 0.0 0.0 0.00 0.00 0.00 82 1009.9
20260506043942 0 0.0 0.0 0.00 0.00 0.00 82 1010.0
20260506043442 0 0.0 0.0 0.00 0.00 0.00 83 1009.9
20260506042942 0 0.0 0.0 0.00 0.00 0.00 82 1009.9
20260506042442 0 0.0 0.0 0.00 0.00 0.00 82 1010.0
20260506041942 0 0.0 0.0 0.00 0.00 0.00 82 1009.8
20260506041442 0 0.0 0.0 0.00 0.00 0.00 82 1009.7
20260506040942 0 0.0 0.0 0.00 0.00 0.00 82 1009.7
20260506040442 0 0.0 0.0 0.00 0.00 0.00 82 1009.7
20260506035942 0 0.0 0.0 0.00 0.00 0.00 81 1009.8
20260506035442 0 0.0 0.0 0.00 0.00 0.00 81 1009.9
20260506034942 0 0.0 0.0 0.00 0.00 0.00 81 1009.9
20260506034442 0 0.0 0.0 0.00 0.00 0.00 80 1010.0
20260506033942 0 0.0 0.0 0.00 0.00 0.00 80 1010.1
20260506033442 0 0.0 0.0 0.00 0.00 0.00 80 1010.1
20260506032942 0 0.0 0.0 0.00 0.00 0.00 80 1010.2
20260506032442 0 0.0 0.0 0.00 0.00 0.00 80 1010.2
20260506031942 0 0.0 0.0 0.00 0.00 0.00 80 1010.3
20260506031442 0 0.0 0.0 0.00 0.00 0.00 80 1010.3
20260506030942 0 0.0 0.0 0.00 0.00 0.00 80 1010.3
20260506030442 0 0.0 0.0 0.00 0.00 0.00 80 1010.5
20260506025942 0 0.0 0.0 0.00 0.00 0.00 80 1010.4
20260506025442 0 0.0 0.0 0.00 0.00 0.00 80 1010.7
20260506024942 0 0.0 0.0 0.00 0.00 0.00 80 1010.8
20260506024442 0 0.0 0.0 0.00 0.00 0.00 80 1010.8
20260506023942 0 0.0 0.0 0.00 0.00 0.00 81 1010.8
20260506023442 0 0.0 0.0 0.00 0.00 0.00 80 1010.9
20260506022942 0 0.0 0.0 0.00 0.00 0.00 79 1010.8
20260506022442 0 0.0 0.0 0.00 0.00 0.00 79 1010.8
20260506021942 0 0.0 0.0 0.00 0.00 0.00 80 1010.7
20260506021442 0 0.0 0.0 0.00 0.00 0.00 80 1010.7
20260506020942 0 0.0 0.0 0.00 0.00 0.00 80 1010.7
20260506020442 0 0.0 0.0 0.00 0.00 0.00 78 1010.9
20260506015942 0 0.0 0.0 0.00 0.00 0.00 78 1010.8
20260506015442 0 0.0 0.0 0.00 0.00 0.00 78 1010.9
20260506014942 0 0.0 0.0 0.00 0.00 0.00 78 1011.0
20260506014442 0 0.0 0.0 0.00 0.00 0.00 78 1011.2
20260506013942 0 0.0 0.0 0.00 0.00 0.00 78 1011.2
20260506013442 0 0.0 0.0 0.00 0.00 0.00 77 1011.3
20260506012942 0 0.0 0.0 0.00 0.00 0.00 77 1011.5
20260506012442 0 0.0 0.0 0.00 0.00 0.00 77 1011.7
20260506011942 0 0.0 0.0 0.00 0.00 0.00 78 1011.6
20260506011442 0 0.0 0.0 0.00 0.00 0.00 79 1011.7
20260506010942 0 0.0 0.0 0.00 0.00 0.00 79 1011.7
20260506010442 0 0.0 0.0 0.00 0.00 0.00 78 1011.6
20260506005942 0 0.0 0.0 0.00 0.00 0.00 77 1011.5
20260506005442 0 0.0 0.0 0.00 0.00 0.00 76 1011.6
20260506004942 0 0.0 0.0 0.00 0.00 0.00 75 1011.6
20260506004442 0 0.0 0.0 0.00 0.00 0.00 75 1011.8
20260506003942 0 0.0 0.0 0.00 0.00 0.00 76 1011.9
20260506003442 0 0.0 0.0 0.00 0.00 0.00 76 1012.1
20260506002942 0 0.0 0.0 0.00 0.00 0.00 75 1012.2
20260506002442 0 0.0 0.0 0.00 0.00 0.00 75 1011.9
20260506001942 0 0.0 0.0 0.00 0.00 0.00 75 1011.8
20260506001442 0 0.0 0.0 0.00 0.00 0.00 74 1011.9
20260506000942 0 0.0 0.0 0.00 0.00 0.00 73 1011.9
20260506000442 0 0.0 0.0 0.00 0.00 0.00 74 1012.1
20260505235942 0 0.0 0.0 0.00 0.00 0.00 75 1012.0
20260505235442 0 0.0 0.0 0.00 0.00 0.00 76 1012.0
20260505234942 0 0.0 0.0 0.00 0.00 0.00 76 1012.1
20260505234442 0 0.0 0.0 0.00 0.00 0.00 76 1012.0
20260505233942 0 0.0 0.0 0.00 0.00 0.00 75 1012.2
20260505233442 0 0.0 0.0 0.00 0.00 0.00 75 1012.2
20260505232942 0 0.0 0.0 0.00 0.00 0.00 74 1012.3
20260505232442 0 0.0 0.0 0.00 0.00 0.00 73 1012.4
20260505231942 0 0.0 0.0 0.00 0.00 0.00 73 1012.5
20260505231442 0 0.0 0.0 0.00 0.00 0.00 74 1012.5
20260505230942 0 0.0 0.0 0.00 0.00 0.00 73 1012.5
20260505230442 0 0.0 0.0 0.00 0.00 0.00 74 1012.6
20260505225942 0 0.0 0.0 0.00 0.00 0.00 73 1012.5
20260505225442 0 0.0 0.0 0.00 0.00 0.00 74 1012.6
20260505224942 0 0.0 0.0 0.00 0.00 0.00 74 1012.5
20260505224442 0 0.0 0.0 0.00 0.00 0.00 74 1012.5
20260505223942 0 0.0 0.0 0.00 0.00 0.00 75 1012.5
20260505223442 0 0.0 0.0 0.00 0.00 0.00 76 1012.6
20260505222942 0 0.0 0.0 0.00 0.00 0.00 74 1012.6
20260505222442 0 0.0 0.0 0.00 0.00 0.00 75 1012.5
20260505221942 0 0.0 0.0 0.00 0.00 0.00 74 1012.5
20260505221442 0 0.0 0.0 0.00 0.00 0.00 74 1012.5
20260505220942 0 0.0 0.0 0.00 0.00 0.00 74 1012.6
20260505220442 0 0.0 0.0 0.00 0.00 0.00 73 1012.6
20260505215942 0 0.0 0.0 0.00 0.00 0.00 74 1012.8
20260505215442 0 0.0 0.0 0.00 0.00 0.00 74 1012.7
20260505214942 0 0.0 0.0 0.00 0.00 0.00 75 1012.6
20260505214442 0 0.0 0.0 0.00 0.00 0.00 75 1012.7
20260505213942 0 0.0 0.0 0.00 0.00 0.00 75 1012.7
20260505213442 0 0.0 0.0 0.00 0.00 0.00 76 1012.7
20260505212942 0 0.0 0.0 0.00 0.00 0.00 76 1012.8
20260505212442 0 0.0 0.0 0.00 0.00 0.00 76 1012.8
20260505211942 0 0.0 0.0 0.00 0.00 0.00 76 1012.9
20260505211442 0 0.0 0.0 0.00 0.00 0.00 76 1012.9
20260505210942 0 0.0 0.0 0.00 0.00 0.00 75 1012.8
20260505210442 0 0.0 0.0 0.00 0.00 0.00 74 1012.7
20260505205942 0 0.0 0.0 0.00 0.00 0.00 74 1012.8
20260505205442 0 0.0 0.0 0.00 0.00 0.00 72 1012.8
20260505204942 0 0.0 0.0 0.00 0.00 0.00 73 1012.9
20260505204442 0 0.0 0.0 0.00 0.00 0.00 75 1012.9
20260505203942 0 0.0 0.0 0.00 0.00 0.00 77 1012.9
20260505203442 0 0.0 0.0 0.00 0.00 0.00 76 1012.9
20260505202942 0 0.0 0.0 0.00 0.00 0.00 76 1012.7
20260505202442 0 0.0 0.0 0.00 0.00 0.00 76 1012.7
20260505201942 0 0.0 0.0 0.00 0.00 0.00 75 1012.6
20260505201442 0 0.0 0.0 0.00 0.00 0.00 76 1012.7
20260505200942 0 0.0 0.0 0.00 0.00 0.00 76 1012.5
20260505200442 0 0.0 0.0 0.00 0.00 0.00 76 1012.6
20260505195942 0 0.0 0.0 0.00 0.00 0.00 76 1012.4
20260505195442 0 0.0 0.0 0.00 0.00 0.00 75 1012.4
20260505194942 0 0.0 0.0 0.00 0.00 0.00 75 1012.4
20260505194442 0 0.0 0.0 0.00 0.00 0.00 75 1012.4
20260505193942 0 0.0 0.0 0.00 0.00 0.00 75 1012.3
20260505193442 0 0.0 0.0 0.00 0.00 0.00 74 1012.3
20260505192942 0 0.0 0.0 0.00 0.00 0.00 73 1012.3
20260505192442 0 0.0 0.0 0.00 0.00 0.00 72 1012.2
20260505191942 0 0.0 0.0 0.00 0.00 0.00 72 1012.1
20260505191442 0 0.0 0.0 0.00 0.00 0.00 73 1012.0
20260505190942 0 0.0 0.0 0.00 0.00 0.00 73 1012.0
20260505190442 0 0.0 0.0 0.00 0.00 0.00 73 1012.0
20260505185942 0 0.0 0.0 0.00 0.00 0.00 73 1011.8
20260505185442 0 0.0 0.0 0.00 0.00 0.00 72 1011.8
20260505184942 0 0.0 0.0 0.00 0.00 0.00 71 1011.7
20260505184442 0 0.0 0.0 0.00 0.00 0.00 70 1011.8
20260505183942 0 0.0 0.0 0.00 0.00 0.00 70 1011.7
20260505183442 0 0.0 0.0 0.00 0.00 0.00 70 1011.7
20260505182942 0 0.0 0.0 0.00 0.00 0.00 69 1011.7
20260505182442 0 0.0 0.0 0.00 0.00 0.00 68 1011.7
20260505181942 0 0.0 0.0 0.00 0.00 0.00 68 1011.8
20260505181442 0 0.0 0.0 0.00 0.00 0.00 67 1011.8
20260505180942 0 0.0 0.0 0.00 0.00 0.00 67 1011.7
20260505180442 0 0.0 0.0 0.00 0.00 0.00 66 1011.5
20260505175942 0 0.0 0.0 0.00 0.00 0.00 66 1011.6
20260505175442 0 0.0 0.0 0.00 0.00 0.00 65 1011.5
20260505174942 0 0.0 0.0 0.00 0.00 0.00 65 1011.7
20260505174442 0 0.0 0.0 0.00 0.00 0.00 65 1011.8
20260505173942 0 0.0 0.0 0.00 0.00 0.00 67 1011.7
20260505173442 0 0.0 0.0 0.00 0.00 0.00 68 1011.7
20260505172942 0 0.0 0.0 0.00 0.00 0.00 68 1011.5
20260505172442 0 0.0 0.0 0.00 0.00 0.00 68 1011.6
20260505171942 0 0.0 0.0 0.00 0.00 0.00 70 1011.5
20260505171442 0 0.0 0.0 0.00 0.00 0.00 69 1011.4
20260505170942 0 0.0 0.0 0.00 0.00 0.00 70 1011.4
20260505170442 0 0.0 0.0 0.00 0.00 0.00 70 1011.4
20260505165942 0 0.0 0.0 0.00 0.00 0.00 70 1011.4
20260505165442 0 0.0 0.0 0.00 0.00 0.00 68 1011.5
20260505164942 0 0.0 0.0 0.00 0.00 0.00 68 1011.6
20260505164442 0 0.0 0.0 0.00 0.00 0.00 68 1011.3
20260505163942 0 0.0 0.0 0.00 0.00 0.00 68 1011.5
20260505163442 0 0.0 0.0 0.00 0.00 0.00 66 1011.6
20260505162942 0 0.0 0.0 0.00 0.00 0.00 67 1011.5
20260505162442 0 0.0 0.0 0.00 0.00 0.00 66 1011.6
20260505161942 0 0.0 0.0 0.00 0.00 0.00 65 1011.6
20260505161442 0 0.0 0.0 0.00 0.00 0.00 64 1011.8
20260505160942 0 0.0 0.0 0.00 0.00 0.00 63 1011.8
20260505160442 0 0.0 0.0 0.00 0.00 0.00 62 1011.9
20260505152942 0 0.0 0.0 0.00 0.00 0.00 62 1011.6
20260505152442 0 0.0 0.0 0.00 0.00 0.00 63 1011.6
20260505151942 0 0.0 0.0 0.00 0.00 0.00 63 1011.7
20260505151442 0 0.0 0.0 0.00 0.00 0.00 64 1011.5
20260505150942 0 0.0 0.0 0.00 0.00 0.00 67 1011.5
20260505150442 0 0.0 0.0 0.00 0.00 0.00 70 1011.4
20260505140442 0 0.0 0.0 0.00 0.00 0.00 58 1011.2